EN

Hourly Weather Kampala

Today, 13 June, Sunday

Time Temperature Precipitation Wind Pressure Humidity
00:00 +21°C° 0 mm 1 mps 657 mmHg 82%
01:00 +21°C° 0 mm 1 mps 657 mmHg 81%
02:00 +20°C° 0 mm 2 mps 657 mmHg 80%
03:00 +20°C° 0 mm 2 mps 657 mmHg 81%
04:00 +20°C° 0 mm 2 mps 657 mmHg 82%
05:00 +20°C° 0 mm 2 mps 658 mmHg 82%
06:00 +21°C° 0.2 mm 2 mps 658 mmHg 76%
07:00 +24°C° 0.2 mm 3 mps 659 mmHg 70%
08:00 +26°C° 0 mm 3 mps 660 mmHg 61%
09:00 +27°C° 0.1 mm 3 mps 660 mmHg 56%
10:00 +28°C° 0.1 mm 4 mps 660 mmHg 50%
11:00 +29°C° 0.1 mm 4 mps 661 mmHg 45%
12:00 +29°C° 0 mm 4 mps 660 mmHg 45%
13:00 +29°C° 0 mm 3 mps 660 mmHg 45%
14:00 +29°C° 0 mm 3 mps 659 mmHg 46%
15:00 +28°C° 0 mm 3 mps 659 mmHg 51%
16:00 +27°C° 0 mm 3 mps 659 mmHg 55%
17:00 +26°C° 0 mm 3 mps 658 mmHg 60%
18:00 +24°C° 0 mm 2 mps 658 mmHg 68%
19:00 +21°C° 0 mm 2 mps 658 mmHg 75%
20:00 +21°C° 0 mm 1 mps 658 mmHg 83%
21:00 +20°C° 0 mm 1 mps 658 mmHg 82%
22:00 +20°C° 0 mm 1 mps 658 mmHg 81%
23:00 +20°C° 0 mm 1 mps 658 mmHg 81%

Tomorrow, 14 June, Monday

Time Temperature Precipitation Wind Pressure Humidity
00:00 +20°C° 0 mm 1 mps 658 mmHg 81%
01:00 +20°C° 0 mm 1 mps 657 mmHg 80%
02:00 +17°C° 0 mm 0 mps 657 mmHg 80%
03:00 +17°C° 0 mm 0 mps 657 mmHg 80%
04:00 +17°C° 0 mm 0 mps 657 mmHg 80%
05:00 +17°C° 0 mm 0 mps 657 mmHg 80%
06:00 +19°C° 0 mm 0 mps 658 mmHg 74%
07:00 +21°C° 0 mm 0 mps 659 mmHg 68%
08:00 +23°C° 0 mm 0 mps 660 mmHg 62%
09:00 +27°C° 0.1 mm 1 mps 660 mmHg 55%
10:00 +28°C° 0.1 mm 2 mps 660 mmHg 49%
11:00 +30°C° 0.1 mm 3 mps 660 mmHg 42%
12:00 +30°C° 0 mm 3 mps 659 mmHg 43%
13:00 +29°C° 0 mm 3 mps 659 mmHg 43%
14:00 +29°C° 0 mm 4 mps 658 mmHg 44%
15:00 +28°C° 0 mm 4 mps 658 mmHg 49%
16:00 +27°C° 0 mm 3 mps 658 mmHg 54%
17:00 +26°C° 0 mm 3 mps 658 mmHg 58%
18:00 +25°C° 0 mm 2 mps 658 mmHg 63%
19:00 +24°C° 0 mm 1 mps 658 mmHg 67%
20:00 +21°C° 0 mm 0 mps 659 mmHg 71%
21:00 +20°C° 0 mm 0 mps 658 mmHg 71%
22:00 +22°C° 0 mm 1 mps 658 mmHg 72%
23:00 +22°C° 0 mm 1 mps 658 mmHg 72%

Day after tomorrow, 15 June, Tuesday

Time Temperature Precipitation Wind Pressure Humidity
00:00 +21°C° 0 mm 1 mps 658 mmHg 74%
01:00 +19°C° 0 mm 0 mps 657 mmHg 76%
02:00 +18°C° 0 mm 0 mps 657 mmHg 78%
03:00 +18°C° 0 mm 0 mps 657 mmHg 80%
04:00 +17°C° 0 mm 0 mps 657 mmHg 82%
05:00 +19°C° 0 mm 1 mps 657 mmHg 85%
06:00 +20°C° 0 mm 1 mps 658 mmHg 78%
07:00 +22°C° 0 mm 1 mps 659 mmHg 71%
08:00 +24°C° 0 mm 1 mps 660 mmHg 64%
09:00 +26°C° 0 mm 1 mps 660 mmHg 56%
10:00 +28°C° 0 mm 1 mps 660 mmHg 48%
11:00 +30°C° 0 mm 1 mps 660 mmHg 40%
12:00 +29°C° 0 mm 2 mps 659 mmHg 43%
13:00 +29°C° 0 mm 2 mps 658 mmHg 45%
14:00 +28°C° 0 mm 3 mps 658 mmHg 48%
15:00 +27°C° 0 mm 2 mps 658 mmHg 53%
16:00 +26°C° 0 mm 2 mps 657 mmHg 58%
17:00 +25°C° 0 mm 2 mps 657 mmHg 64%
18:00 +24°C° 0 mm 1 mps 657 mmHg 67%
19:00 +23°C° 0 mm 1 mps 658 mmHg 70%
20:00 +20°C° 0 mm 0 mps 658 mmHg 74%
21:00 +19°C° 0 mm 0 mps 658 mmHg 75%
22:00 +19°C° 0 mm 0 mps 658 mmHg 76%
23:00 +19°C° 0 mm 0 mps 658 mmHg 78%

16 June, Wednesday

Time Temperature Precipitation Wind Pressure Humidity
00:00 +18°C° 0 mm 0 mps 657 mmHg 80%
01:00 +17°C° 0 mm 0 mps 657 mmHg 83%
02:00 +19°C° 0 mm 1 mps 656 mmHg 85%
03:00 +19°C° 0 mm 1 mps 657 mmHg 85%
04:00 +19°C° 0 mm 1 mps 657 mmHg 85%
05:00 +19°C° 0 mm 1 mps 657 mmHg 84%
06:00 +21°C° 0 mm 1 mps 658 mmHg 76%
07:00 +22°C° 0 mm 1 mps 659 mmHg 68%
08:00 +22°C° 0 mm 0 mps 659 mmHg 60%
09:00 +26°C° 0 mm 1 mps 660 mmHg 53%
10:00 +28°C° 0 mm 1 mps 660 mmHg 46%
11:00 +30°C° 0 mm 2 mps 660 mmHg 39%
12:00 +30°C° 0 mm 2 mps 659 mmHg 42%
13:00 +29°C° 0 mm 2 mps 659 mmHg 44%
14:00 +28°C° 0 mm 3 mps 658 mmHg 46%
15:00 +27°C° 0 mm 3 mps 658 mmHg 50%
16:00 +26°C° 0 mm 3 mps 658 mmHg 54%
17:00 +26°C° 0 mm 3 mps 658 mmHg 57%
18:00 +24°C° 0 mm 2 mps 658 mmHg 64%
19:00 +23°C° 0 mm 2 mps 658 mmHg 70%
20:00 +21°C° 0 mm 1 mps 658 mmHg 77%
21:00 +21°C° 0 mm 1 mps 658 mmHg 79%
22:00 +18°C° 0 mm 0 mps 658 mmHg 81%
23:00 +18°C° 0 mm 0 mps 658 mmHg 83%

17 June, Thursday

Time Temperature Precipitation Wind Pressure Humidity
00:00 +18°C° 0 mm 0 mps 658 mmHg 84%
01:00 +18°C° 0 mm 0 mps 657 mmHg 85%
02:00 +17°C° 0 mm 0 mps 657 mmHg 86%
03:00 +17°C° 0 mm 0 mps 657 mmHg 87%
04:00 +17°C° 0 mm 0 mps 657 mmHg 88%
05:00 +17°C° 0 mm 0 mps 658 mmHg 89%
06:00 +18°C° 0.1 mm 0 mps 658 mmHg 84%
07:00 +19°C° 0.1 mm 0 mps 659 mmHg 80%
08:00 +21°C° 0.1 mm 0 mps 660 mmHg 75%
09:00 +22°C° 0.2 mm 0 mps 660 mmHg 69%
10:00 +25°C° 0.2 mm 1 mps 660 mmHg 62%
11:00 +27°C° 0.2 mm 1 mps 660 mmHg 55%
12:00 +28°C° 0 mm 1 mps 660 mmHg 51%
13:00 +29°C° 0 mm 2 mps 659 mmHg 47%
14:00 +30°C° 0 mm 3 mps 659 mmHg 43%
15:00 +28°C° 0 mm 3 mps 659 mmHg 48%
16:00 +27°C° 0 mm 2 mps 659 mmHg 54%
17:00 +26°C° 0 mm 2 mps 658 mmHg 59%
18:00 +24°C° 0 mm 2 mps 658 mmHg 67%
19:00 +22°C° 0 mm 1 mps 658 mmHg 75%
20:00 +19°C° 0 mm 0 mps 658 mmHg 83%
21:00 +18°C° 0 mm 0 mps 658 mmHg 84%
22:00 +18°C° 0 mm 0 mps 658 mmHg 85%
23:00 +18°C° 0 mm 0 mps 659 mmHg 86%

18 June, Friday

Time Temperature Precipitation Wind Pressure Humidity
00:00 +18°C° 0 mm 0 mps 658 mmHg 85%
01:00 +20°C° 0 mm 1 mps 658 mmHg 85%
02:00 +20°C° 0 mm 1 mps 658 mmHg 85%
03:00 +20°C° 0.1 mm 1 mps 658 mmHg 87%
04:00 +20°C° 0.1 mm 1 mps 658 mmHg 89%
05:00 +20°C° 0.1 mm 1 mps 659 mmHg 91%
06:00 +20°C° 0.1 mm 1 mps 659 mmHg 90%
07:00 +20°C° 0.1 mm 1 mps 660 mmHg 89%
08:00 +18°C° 0.1 mm 0 mps 660 mmHg 88%
09:00 +23°C° 0.2 mm 1 mps 660 mmHg 78%
10:00 +25°C° 0.2 mm 1 mps 660 mmHg 67%
11:00 +27°C° 0.2 mm 2 mps 661 mmHg 57%
12:00 +27°C° 0.1 mm 2 mps 660 mmHg 56%
13:00 +27°C° 0.1 mm 3 mps 660 mmHg 56%
14:00 +27°C° 0.1 mm 3 mps 659 mmHg 56%
15:00 +26°C° 0.1 mm 3 mps 659 mmHg 59%
16:00 +25°C° 0.1 mm 3 mps 659 mmHg 63%
17:00 +25°C° 0.1 mm 3 mps 659 mmHg 66%
18:00 +23°C° 0.1 mm 2 mps 659 mmHg 73%
19:00 +21°C° 0.1 mm 2 mps 659 mmHg 81%
20:00 +20°C° 0.1 mm 1 mps 659 mmHg 88%
21:00 +20°C° 0 mm 1 mps 659 mmHg 87%
22:00 +20°C° 0 mm 1 mps 659 mmHg 86%
23:00 +20°C° 0 mm 1 mps 659 mmHg 85%
Show more